Waarnemingen

Advertentie
Mijn weer
Hohn, Duitsland (10038): temperatuur & dauwpunt: 22.05.2018 12:00:00 - 28.05.2018 12:00:00 (CEST)Hohn, Duitsland (10038): windsnelheid & windstoten: 22.05.2018 12:00:00 - 28.05.2018 12:00:00 (CEST)Hohn, Duitsland (10038): windrichting: 22.05.2018 12:00:00 - 28.05.2018 12:00:00 (CEST)Hohn, Duitsland (10038): luchtdruk: 22.05.2018 12:00:00 - 28.05.2018 12:00:00 (CEST)Hohn, Duitsland (10038): zicht: 22.05.2018 12:00:00 - 28.05.2018 12:00:00 (CEST)
Datum & Tijd tt [°C] td [°C] ff [km/u] ff [kn] fx [km/u] fx [kn] dd ppp [hPa] vv [km]
28.05.2018 12:00:00 - - - - - - - - -
28.05.2018 11:00:00 20,1 15,1 18 10 - - O 1021,4 14
28.05.2018 10:00:00 19,5 15,6 14 8 - - O 1021,3 14
28.05.2018 09:00:00 16,4 14,5 18 10 - - O 1021,7 10
28.05.2018 08:00:00 15,5 14,2 18 10 - - O 1021,2 8
28.05.2018 07:00:00 15,1 14,0 22 12 - - O 1020,7 8
28.05.2018 06:00:00 15,1 14,0 25 14 - - O 1020,6 15
28.05.2018 05:00:00 15,5 14,5 25 14 - - O 1021,0 6
28.05.2018 04:00:00 14,9 14,4 18 10 - - N 1021,1 5
28.05.2018 03:00:00 14,9 14,4 7 4 - - N 1022,1 4,0
28.05.2018 02:00:00 14,8 14,3 7 4 - - ONO 1021,5 3,0
28.05.2018 01:00:00 14,6 14,0 18 10 - - O 1021,0 3,0
28.05.2018 00:00:00 14,6 13,9 14 8 - - ONO 1021,0 3,5
27.05.2018 23:00:00 14,5 13,7 22 12 - - O 1021,4 3,3
27.05.2018 22:00:00 14,7 13,5 29 16 - - O 1021,4 8
27.05.2018 21:00:00 15,1 13,3 22 12 - - O 1021,4 15
27.05.2018 20:00:00 16,9 13,5 25 14 - - ONO 1021,0 18
27.05.2018 19:00:00 18,2 13,7 22 12 - - O 1021,5 25
27.05.2018 18:00:00 19,2 13,8 29 16 - - ONO 1021,6 25
27.05.2018 17:00:00 19,4 13,9 25 14 - - ONO 1021,9 25
27.05.2018 16:00:00 18,9 13,4 25 14 - - ONO 1022,2 25
27.05.2018 15:00:00 18,3 13,8 25 14 - - ONO 1022,9 25
27.05.2018 14:00:00 19,1 14,1 29 16 - - ONO 1023,4 20
27.05.2018 13:00:00 18,4 13,3 22 12 - - O 1024,0 12
27.05.2018 12:00:00 17,8 13,5 22 12 - - O 1023,8 12
27.05.2018 11:00:00 17,4 13,6 22 12 - - O 1024,0 15
27.05.2018 10:00:00 17,6 13,3 22 12 - - ONO 1023,7 15
27.05.2018 09:00:00 17,0 13,1 22 12 - - O 1023,9 10
27.05.2018 08:00:00 15,3 13,2 25 14 - - O 1023,8 8
27.05.2018 07:00:00 14,5 13,3 22 12 - - O 1023,8 4,8
27.05.2018 06:00:00 14,3 13,5 14 8 - - O 1023,6 5
27.05.2018 05:00:00 14,2 13,4 14 8 - - ONO 1023,7 4,0
27.05.2018 04:00:00 12,3 11,7 7 4 - - ONO 1024,3 10
27.05.2018 03:00:00 13,7 12,5 7 4 - - O 1024,3 25
27.05.2018 02:00:00 14,1 12,6 7 4 - - NO 1024,3 35
27.05.2018 01:00:00 15,5 13,2 11 6 - - ONO 1024,4 35
27.05.2018 00:00:00 16,1 13,0 7 4 - - OZO 1024,3 35
26.05.2018 23:00:00 16,8 12,9 11 6 - - NO 1024,4 35
26.05.2018 22:00:00 18,5 13,1 11 6 - - NO 1024,5 35
26.05.2018 21:00:00 20,6 12,8 14 8 - - ONO 1023,9 35
26.05.2018 20:00:00 22,1 11,8 18 10 - - ONO 1023,9 35
26.05.2018 19:00:00 23,2 11,9 18 10 - - O 1024,1 35
26.05.2018 18:00:00 23,5 11,5 22 12 - - O 1024,0 35
26.05.2018 17:00:00 24,2 11,0 22 12 - - ONO 1024,2 35
26.05.2018 16:00:00 23,5 12,4 25 14 - - ONO 1024,1 30
26.05.2018 15:00:00 23,7 12,2 18 10 - - O 1024,4 23
26.05.2018 14:00:00 22,4 11,5 18 10 - - NO 1024,6 18
26.05.2018 13:00:00 22,1 10,9 22 12 - - NO 1024,3 18
26.05.2018 12:00:00 21,2 12,4 22 12 - - ONO 1024,4 20
26.05.2018 11:00:00 21,0 13,6 18 10 - - ONO 1024,4 20
26.05.2018 10:00:00 19,7 12,8 18 10 - - ONO 1024,2 15
26.05.2018 09:00:00 16,8 12,5 18 10 - - O 1024,2 12
26.05.2018 08:00:00 14,9 12,2 18 10 - - O 1024,1 8
26.05.2018 07:00:00 11,9 11,4 7 4 - - ONO 1024,0 1,5
26.05.2018 06:00:00 8,1 7,8 4 2 - - NO 1023,8 0,2
26.05.2018 05:00:00 9,7 9,1 7 4 - - O 1023,7 4,5
26.05.2018 04:00:00 10,1 9,2 11 6 - - ONO 1023,7 20
26.05.2018 03:00:00 9,5 8,0 7 4 - - NO 1023,9 20
26.05.2018 02:00:00 11,3 8,6 7 4 - - ONO 1023,9 20
26.05.2018 01:00:00 11,6 9,0 11 6 - - ONO 1023,9 25
26.05.2018 00:00:00 14,0 9,4 11 6 - - O 1023,9 25
25.05.2018 23:00:00 14,5 8,8 18 10 - - O 1023,4 25
25.05.2018 22:00:00 15,4 7,2 14 8 - - ONO 1023,5 30
25.05.2018 21:00:00 16,8 4,5 18 10 - - ONO 1023,1 30
25.05.2018 20:00:00 18,7 2,9 22 12 - - O 1023,3 30
25.05.2018 19:00:00 19,8 2,2 36 19 47 25 O 1023,4 25
25.05.2018 18:00:00 20,8 -6,1 29 16 54 29 ONO 1023,5 25
25.05.2018 17:00:00 21,6 -9,6 43 23 - - ONO 1023,6 25
25.05.2018 16:00:00 22,1 4,4 40 21 50 27 ONO 1023,5 25
25.05.2018 15:00:00 22,9 7,7 32 18 47 25 ONO 1023,5 25
25.05.2018 14:00:00 23,9 8,4 32 18 - - ONO 1023,6 25
25.05.2018 13:00:00 23,7 10,1 29 16 50 27 ONO 1023,5 25
25.05.2018 12:00:00 23,7 9,4 29 16 - - O 1023,7 25
25.05.2018 11:00:00 21,6 10,7 22 12 - - ONO 1023,4 25
25.05.2018 10:00:00 20,0 11,3 25 14 - - O 1023,6 25
25.05.2018 09:00:00 17,8 10,9 18 10 - - O 1023,6 20
25.05.2018 08:00:00 16,1 10,9 14 8 - - O 1023,3 20
25.05.2018 07:00:00 13,4 10,5 11 6 - - O 1023,2 20
25.05.2018 06:00:00 12,0 10,1 11 6 - - O 1023,2 20
25.05.2018 05:00:00 11,7 9,7 7 4 - - O 1023,1 20
25.05.2018 04:00:00 12,2 9,6 11 6 - - O 1023,2 20
25.05.2018 03:00:00 12,8 9,9 11 6 - - O 1023,5 20
25.05.2018 02:00:00 13,1 10,0 14 8 - - O 1023,6 20
25.05.2018 01:00:00 13,3 9,4 14 8 - - ONO 1023,8 25
25.05.2018 00:00:00 13,7 9,0 14 8 - - ONO 1023,8 30
24.05.2018 23:00:00 14,8 8,5 18 10 - - O 1023,7 30
24.05.2018 22:00:00 16,1 7,3 25 14 - - O 1023,7 30
24.05.2018 21:00:00 17,6 6,8 25 14 - - O 1023,4 35
24.05.2018 20:00:00 19,5 7,5 29 16 - - O 1023,2 35
24.05.2018 19:00:00 21,0 7,4 32 18 50 27 O 1023,3 35
24.05.2018 18:00:00 21,8 7,6 36 19 50 27 O 1023,4 35
24.05.2018 17:00:00 22,2 9,0 36 19 - - O 1023,6 35
24.05.2018 16:00:00 22,4 10,1 36 19 50 27 ONO 1024,0 35
24.05.2018 15:00:00 22,3 10,0 32 18 50 27 ONO 1024,5 35
24.05.2018 14:00:00 22,4 8,7 32 18 - - ONO 1025,2 35
24.05.2018 13:00:00 22,3 7,3 29 16 47 25 O 1025,4 35
24.05.2018 12:00:00 22,7 7,1 29 16 - - O 1025,7 35
24.05.2018 11:00:00 22,1 8,8 22 12 - - OZO 1025,9 30
24.05.2018 10:00:00 19,6 10,0 22 12 - - O 1026,1 30
24.05.2018 09:00:00 18,1 9,9 22 12 - - O 1025,9 30
24.05.2018 08:00:00 16,5 9,1 18 10 - - O 1025,8 30
24.05.2018 07:00:00 13,8 8,9 14 8 - - ONO 1025,9 25
24.05.2018 06:00:00 10,6 7,9 7 4 - - ONO 1026,0 15
24.05.2018 05:00:00 10,1 7,6 7 4 - - ONO 1026,2 15
24.05.2018 04:00:00 10,8 7,7 11 6 - - O 1026,4 15
24.05.2018 03:00:00 11,3 8,3 11 6 - - O 1026,2 20
24.05.2018 02:00:00 11,4 8,9 11 6 - - ONO 1026,0 20
24.05.2018 01:00:00 12,4 8,3 7 4 - - ONO 1026,0 20
24.05.2018 00:00:00 12,6 7,8 7 4 - - ONO 1025,8 20
23.05.2018 23:00:00 13,4 7,4 7 4 - - ONO 1025,7 30
23.05.2018 22:00:00 16,5 7,7 7 4 - - ONO 1025,4 30
23.05.2018 21:00:00 19,6 7,2 11 6 - - ONO 1025,0 30
23.05.2018 20:00:00 21,5 6,6 18 10 - - ONO 1024,7 30
23.05.2018 19:00:00 22,4 6,0 22 12 - - ONO 1024,5 30
23.05.2018 18:00:00 22,6 6,1 22 12 - - O 1024,6 30
23.05.2018 17:00:00 23,2 6,3 22 12 - - O 1024,7 30
23.05.2018 16:00:00 23,1 5,9 29 16 - - ONO 1025,0 30
23.05.2018 15:00:00 23,6 6,4 25 14 - - O 1025,0 25
23.05.2018 14:00:00 23,2 5,4 29 16 - - ONO 1024,7 25
23.05.2018 13:00:00 22,8 7,5 22 12 - - ONO 1024,3 25
23.05.2018 12:00:00 22,5 7,5 14 8 - - ONO 1024,2 25
23.05.2018 11:00:00 21,5 6,4 14 8 - - O 1024,0 25
23.05.2018 10:00:00 19,7 7,8 14 8 - - O 1023,6 25
23.05.2018 09:00:00 17,8 8,5 11 6 - - ONO 1023,1 25
23.05.2018 08:00:00 15,4 10,2 11 6 - - ONO 1022,6 15
23.05.2018 07:00:00 13,1 10,3 7 4 - - O 1021,9 15
23.05.2018 06:00:00 10,0 8,9 7 4 - - ONO 1021,4 20
23.05.2018 05:00:00 8,5 7,8 7 4 - - O 1020,8 20
23.05.2018 04:00:00 8,6 7,7 7 4 - - ONO 1020,4 20
23.05.2018 03:00:00 8,9 7,2 4 2 - - ONO 1020,0 20
23.05.2018 02:00:00 10,9 7,4 11 6 - - O 1019,7 20
23.05.2018 01:00:00 10,1 7,6 7 4 - - ONO 1019,5 20
23.05.2018 00:00:00 12,3 8,1 7 4 - - O 1019,0 20
22.05.2018 23:00:00 13,1 8,5 7 4 - - ONO 1018,6 30
22.05.2018 22:00:00 14,8 8,7 11 6 - - ONO 1018,1 30
22.05.2018 21:00:00 18,1 8,8 14 8 - - ONO 1017,6 30
22.05.2018 20:00:00 20,3 6,2 22 12 - - ONO 1017,2 30
22.05.2018 19:00:00 21,5 6,5 25 14 - - O 1016,9 30
22.05.2018 18:00:00 22,2 6,5 29 16 - - ONO 1016,7 30
22.05.2018 17:00:00 22,3 6,7 25 14 - - O 1016,1 30
22.05.2018 16:00:00 22,9 6,4 25 14 - - ONO 1016,2 30
22.05.2018 15:00:00 22,6 5,9 25 14 - - ONO 1016,4 30
22.05.2018 14:00:00 22,1 5,5 18 10 - - O 1016,3 30
22.05.2018 13:00:00 23,3 5,3 22 12 - - OZO 1016,5 30
22.05.2018 12:00:00 21,8 8,6 22 12 - - O 1016,4 20

tt = temperatuur
td = dauwpunt
ff = windsnelheid
fx = windstoten
dd = windrichting
ppp = luchtdruk
vv = zicht

Weerstations in de omgeving